Location: Niedergestelen
(46.3129°N, 7.7822°E)
Time: 15:41:45
(UTC+00:00)

SAR-Lupe-4 - Pass Details

Date: 01 December 2020
Orbit: 481 x 484 km, 98.2° (Epoch: 09 January)

Event Time Altitude Azimuth Distance (km) Brightness Sun altitude
Exits shadow 17:29:13 44° 72° (ENE) 681 3.8 -17.5°
Maximum altitude 17:29:43 48° 101° (E) 643 3.7 -17.6°
Drops below altitude 10° 17:33:11 10° 176° (S) 1,663 6.4 -18.2°
Sets 17:35:17 0° 182° (S) 2,538 7.4 -18.5°
